AQI (112)

Current Conditions for Foresthill, CA. Clear skies, Dry   
Visibility: 10 miles
Space WX Alerts: WATCH:  Geomagnetic Storm Category G1 Predicted ( Latest Alert ) - Issue Time: 2018 Sep 20 1543 UTC

  Summary / Temperature 

Current Temperature
66.3°F
19.1°C
(24/hr Ago)
62.7°F
(Apparent temp)
63.2°F
Comfortable
Wind Chill Graphs
66.4°F 

66.3°F/ 19.1°C
 --- Virtual Temp: 68.3°F ---

 Temp Rate:

 24/hr Difference:

 Avg Running Temp:

 Todays High:

 Todays Low:

 Y-days High:

 Y-days Low:

 Todays WChill:

 Y-days WChill:

 Evapotranspiration:

-0.6°F/hr 

+3.6°F

66.9°F

81.3°F 2:33pm

60.6°F 2:49am

76.1°F 2:03pm

56.3°F 7:42am

59.7°F 5:12am

53.8°F 6:26am

0.173 in

115' Above Ground

 Temperature:

 6'AGL VRS 115'AGL:

 Avg Running Temp:

 Humidity:

 Todays High:

 Todays Low:

 Y-days High:

 Y-days Low:

69.0°F 

+2.7°F

70.2°F

37% 

81.0°F 2:29pm

64.0°F 1:49am

75.0°F 2:44pm

58.0°F 5:34am

Temp & Humidity Graphs

  Wind 

Wind Speed

 7.0 mph

Gusting to

 11.0 mph

Wind from E

99°  E

Light breeze

 Avg speed:

 Wind Run:

 Peak Gust:

  2.0 mph 

46.0 miles

  17.0 mph 6:02am

  Almanac  

Moon age: 11 days,5 hours,16 minutes,86%

Waxing Gibbous
86%
Illuminated
11 days in cycle

 Moonrise:

 Moonset:

 Sunrise:

 Sunset:

 Solar Noon:

5:03pm

2:29am

6:50am

7:04pm

12:56pm

2min 31s less daylight tomorrow 

  Solar Radiation 

(Current Solar)
  No Sun Light
(Todays High)
 773 W/m2@12:46pm

Rain

 Rain Today:

 Rain Rate (/hr):

 Rain last hour:

 Rain Yesterday:

 This Month:

 Season Total:

117 Days Since Last Rain Day

0.00 in

0.000 in

0.00 in

0.00 in

0.00 in

0.00 in

Updated Time

Updated: 9/20/18  11:28pm

(Updated  sec ago)

Humidity & Barometer

 Humidity:

 Wetbulb:

 Dew Point:

 Barometer:

40% 

54.3°F 

41.2°F 

29.910 inHg 

 Baro Trend:  Steady 
Northern Calif
Preparedness
Fire 
Level 

    UV Index  

(Current UV)
0.0  None
(Todays High) @ 12:35pm
6.1   High

National Weather Service Forecast

Tonight

Tonight: Clear
Clear
Friday

Friday: Sunny
Sunny
Friday
Night
Friday Night: Clear
Clear
Saturday

Saturday: Sunny
Sunny
Saturday
Night
Saturday Night: Mostly Clear
Mostly Clear
Sunday

Sunday: Sunny
Sunny
Lo 63 °F Hi 86 °F ↓ Lo 62 °F Hi 82 °F Lo 61 °F Hi 79 °F

Foresthill Probe 2 Stats  
Foresthill Probe 2: is located on Thomas Street
at 3000 feet. The main Foresthill Weather site
is located on Melody ln at the 2860 foot elevation

Calm
64.0°F
17.8°C
Temp Rate:
-1.1°F
Calm
Gusting to
2.0 mph
(Humidity)
45%
Wind from SE
136°  SE
Updated: 20/09/18 - 23:23:30
 Todays High: 82.6°F 14:45
 Todays Low: 57.9°F 02:14
 Rain Today: 0.00 in
 Season Total: 0.00 in

Foresthill Wx: Monthly,Yearly, Highs and Lows 

Foresthill  
This Weather Data is coming from the main Foresthill
Weather site located on Melody ln at the 2860 foot
elevation
Not Foresthill Probe 2
Weather Data
Month
  High
Month
  Low
Year
High
Year
Low
Temp 91.8°F
9/5/18
52.8°F
9/16/18
93.9°F
8/10/18
21.9°F
2/23/18
Humidity 64%
9/1/18
13%
9/7/18
100%
1/8/18
12%
7/8/18
Heat Index 88.3°F
9/5/18
53.4°F
9/16/18
93.3°F
7/25/18
27.1°F
2/20/18
Wind Chill 91.8°F
9/5/18
49.6°F
9/14/18
93.9°F
8/10/18
9.2°F
2/23/18
Wind Gust 22 mph
9/12/18
0 mph
9/1/18
43 mph
3/1/18
0 mph
1/1/18
Barometer 30.02 in
9/6/18
29.77 in
9/11/18
30.55 in
1/27/18
29.60 in
6/16/18
ET 0.22 in
9/11/18
0.00 in
9/1/18
0.25 in
6/24/18
0.00 in
1/1/18
Dew Point 55.5°F
9/3/18
29.0°F
9/9/18
66.9°F
7/24/18
7.6°F
2/11/18
Pacific Satellite US Radar Satellite Imagery Sacramento,CA.  (click to enlarge)
NWS Weather Forecast - Summary
Updated: Thursday, Sepember 20, 2018 - 7:04pm PDT
Locally Gusty Ridge Top Winds This Weekend
Current Interstate Highway Conditions for I-80 & US-50

[I 80: IN THE SAN FRANCISCO BAY AREA - SOLANO CO]
no traffic restrictions are reported for this area.

[I 80: IN THE NORTHERN CALIFORNIA AREA & SIERRA NEVADA]
no traffic restrictions are reported for this area.

[US 50: IN THE SACRAMENTO VALLEY & THE LAKE TAHOE BASIN]
the eastbound connector to northbound i 5 /in sacramento/ (sacramento co)   Is closed from 11:00pm each night to 5:00am each morning wednesday thru friday thru 9/21/18 - due to construction - a detour is available
is reduced to 1 lane in each direction from winnemucca ave to river dr /in south lake tahoe/ (EL DORADO CO) 24 hrs a day from 0001 hrs monday thru 11:00am thru 9/21/18 - due to construction - motorists are subject to delays of up to 30 minutes
NWS Weather Forecast: Tonight and Friday (Updated: Thu, 20-Sep-2018 2:11pm PDT)
Tonight

Tonight: Clear
Clear

Lo 63 °F
NWS forecast: Clear, with a low around 63. East wind 3 to 8 mph.
Friday

Friday: Sunny
Sunny

Hi 86 °F ↓
NWS forecast: Sunny. High near 86, with temperatures falling to around 84 in the afternoon. South wind 5 to 8 mph.
YR.NO 10 Day Weather forecast
Last update: 09/20/2018 @ 12:37
Next update: 09/21/2018 @ 01:00
Provided by: 22
      Temperature Precipitation Pressure Wind  
Today
09/20/2018
21:00 00:00 61°F   29.87 inHg Light breeze from east-northeast 4 mph
    (Click to enlarge)
meteogram

    Forecast for next 9 days

      Temperature Precip Pressure Wind  
Friday
09/21/2018
00:00 06:00 55°F   29.87 inHg Light breeze from east-northeast 6 mph
  06:00 12:00 50°F   29.91 inHg Light breeze from east-northeast 6 mph
  12:00 18:00 82°F   29.94 inHg Light breeze from south-southwest 7 mph
  18:00 00:00 77°F   29.91 inHg Light breeze from southwest 5 mph
      Temperature Precip Pressure Wind  
Saturday
09/22/2018
00:00 06:00 54°F   29.95 inHg Light breeze from east-northeast 4 mph
  06:00 12:00 52°F   29.93 inHg Light breeze from east-northeast 6 mph
  12:00 18:00 81°F   29.95 inHg Gentle breeze from southwest 8 mph
  18:00 00:00 75°F   29.88 inHg Light breeze from south-southwest 5 mph
      Temperature Precip Pressure Wind  
Sunday
09/23/2018
00:00 06:00 57°F   29.88 inHg Light breeze from east 6 mph
  05:00 11:00 59°F   29.85 inHg Light breeze from east 6 mph
  11:00 17:00 73°F   29.88 inHg Gentle breeze from south-southwest 8 mph
  17:00 23:00 72°F   29.83 inHg Light breeze from west-southwest 5 mph
  23:00 05:00 50°F   29.86 inHg Light breeze from east-northeast 5 mph
      Temperature Precip Pressure Wind  
Monday
09/24/2018
05:00 11:00 54°F   29.85 inHg Gentle breeze from east-northeast 9 mph
  11:00 17:00 81°F   29.84 inHg Light air from west 2 mph
  17:00 23:00 81°F   29.81 inHg Light breeze from west-northwest 6 mph
  23:00 05:00 63°F   29.84 inHg Gentle breeze from east-northeast 8 mph
      Temperature Precip Pressure Wind  
Tuesday
09/25/2018
05:00 11:00 66°F   29.86 inHg Gentle breeze from east-northeast 11 mph
  11:00 17:00 86°F   29.88 inHg Light air from west-southwest 2 mph
  17:00 23:00 86°F   29.88 inHg Light breeze from west 4 mph
  23:00 05:00 61°F   29.93 inHg Gentle breeze from east-northeast 8 mph
      Temperature Precip Pressure Wind  
Wednesday
09/26/2018
05:00 11:00 59°F   29.93 inHg Gentle breeze from east-northeast 8 mph
  11:00 17:00 88°F   29.95 inHg Light air from west 3 mph
  17:00 23:00 88°F   29.86 inHg Light breeze from west 6 mph
  23:00 05:00 59°F   29.87 inHg Light breeze from east-northeast 4 mph
      Temperature Precip Pressure Wind  
Thursday
09/27/2018
05:00 11:00 55°F   29.81 inHg Gentle breeze from east-northeast 8 mph
  11:00 17:00 86°F   29.82 inHg Light breeze from west-southwest 4 mph
  17:00 23:00 86°F   29.73 inHg Light breeze from southwest 5 mph
  23:00 05:00 59°F   29.76 inHg Light breeze from east-northeast 6 mph
      Temperature Precip Pressure Wind  
Friday
09/28/2018
05:00 11:00 59°F   29.77 inHg Light breeze from east 6 mph
  11:00 17:00 82°F   29.81 inHg Gentle breeze from south-southwest 8 mph
  17:00 23:00 82°F   29.75 inHg Light breeze from south-southwest 7 mph
  23:00 05:00 64°F   29.83 inHg Light breeze from east 7 mph
      Temperature Precip Pressure Wind  
Saturday
09/29/2018
05:00 11:00 59°F   29.82 inHg Light breeze from east-northeast 6 mph
  11:00 17:00 82°F   29.85 inHg Light breeze from west-southwest 5 mph
  17:00 23:00 79°F   29.83 inHg Light breeze from southwest 6 mph
  23:00 05:00 59°F   29.93 inHg Light air from south 2 mph

NOAA Local Storm Report
6 MILES WEST-NORTHWEST OF BILLINGS   ( More )
DATE
09/20/2018
TIME
12:17 PM
COUNTY
YELLOWSTONE
STATE
MT
GEOGRAPHIC
45.75N 108.63W
SOURCE
TRAINED SPOTTER
HAIL MEASURED AT 0.25 INCH
pea sized hail reported near 44th and king.
How Close Are We To this Month's Temperature Record ?
Updated Thursday, Sep 20, 2018- 11:20:01 PM

Current Temperature: 66.3°F

September's High: Temperature Record 95.9°F - Set on Wed, Sep 9, 2015 - 1:44:00 PM
We are currently 29.6°F Less than this Month's record High

September's Low: Temperature Record 44.1°F - Set on Sun, Sep 22, 2013 - 7:41:00 AM
We are currently 22.2°F More than this Month's record Low

Weather History For Friday, September 21, 2018


On this Day - In Weather History ...
Data courtesy of weatherforyou.com
powered by Cumulus v1.9.3 (1059)
Ambient Weather VWS v14.00
Top Contact Website Map Copyright © 2007 - 2018 Foresthillweather.com Never base important decisions on this or any weather information obtained from the Internet